When you browse on this site, cookies collect data to enhance your experience and personalize the content and advertising you see.
Visit our Privacy Policy to learn more. By continuing to use the site, you agree to this use of cookies and data.
  • In Czech Republic
  • List of Countries
  • For 7 days
  • Water Temperature
  • Satellite Maps
  • Weather Map
  • Weather Widgets
  • user-avatar
    Login

    Hourly Weather Bregenz

    Today, 17 February, Sunday

    Time Temperature Precipitation Wind Pressure Humidity
    00:00 -2°C° 0 mm 2 mps 651 mmHg 57%
    01:00 -2°C° 0 mm 2 mps 651 mmHg 53%
    02:00 -2°C° 0 mm 2 mps 651 mmHg 54%
    03:00 -3°C° 0 mm 2 mps 651 mmHg 55%
    04:00 -3°C° 0 mm 2 mps 651 mmHg 55%
    05:00 -3°C° 0 mm 2 mps 650 mmHg 56%
    06:00 -3°C° 0 mm 2 mps 650 mmHg 56%
    07:00 -4°C° 0 mm 2 mps 650 mmHg 57%
    08:00 -2°C° 0 mm 2 mps 650 mmHg 58%
    09:00 +1°C° 0 mm 2 mps 651 mmHg 58%
    10:00 +3°C° 0 mm 2 mps 651 mmHg 58%
    11:00 +5°C° 0 mm 1 mps 651 mmHg 59%
    12:00 +7°C° 0 mm 1 mps 651 mmHg 60%
    13:00 +8°C° 0 mm 0 mps 651 mmHg 61%
    14:00 +7°C° 0 mm 0 mps 651 mmHg 65%
    15:00 +7°C° 0 mm 0 mps 651 mmHg 69%
    16:00 +7°C° 0 mm 0 mps 650 mmHg 73%
    17:00 +6°C° 0 mm 1 mps 650 mmHg 73%
    18:00 +4°C° 0 mm 1 mps 650 mmHg 73%
    19:00 +1°C° 0 mm 2 mps 649 mmHg 74%
    20:00 -1°C° 0 mm 2 mps 649 mmHg 70%
    21:00 -1°C° 0 mm 2 mps 649 mmHg 67%
    22:00 -2°C° 0 mm 2 mps 649 mmHg 64%
    23:00 -2°C° 0 mm 2 mps 649 mmHg 62%

    Tomorrow, 18 February, Monday

    Time Temperature Precipitation Wind Pressure Humidity
    00:00 -3°C° 0 mm 2 mps 649 mmHg 60%
    01:00 -3°C° 0 mm 2 mps 649 mmHg 58%
    02:00 -3°C° 0 mm 2 mps 648 mmHg 57%
    03:00 -4°C° 0 mm 2 mps 648 mmHg 56%
    04:00 -4°C° 0 mm 2 mps 648 mmHg 56%
    05:00 -4°C° 0 mm 2 mps 648 mmHg 56%
    06:00 -4°C° 0 mm 2 mps 648 mmHg 56%
    07:00 -4°C° 0 mm 2 mps 648 mmHg 56%
    08:00 -2°C° 0 mm 2 mps 648 mmHg 56%
    09:00 +2°C° 0 mm 1 mps 648 mmHg 57%
    10:00 +3°C° 0 mm 1 mps 649 mmHg 57%
    11:00 +5°C° 0 mm 1 mps 649 mmHg 57%
    12:00 +6°C° 0 mm 0 mps 649 mmHg 57%
    13:00 +7°C° 0 mm 0 mps 649 mmHg 57%
    14:00 +7°C° 0 mm 0 mps 648 mmHg 61%
    15:00 +6°C° 0 mm 0 mps 648 mmHg 64%
    16:00 +6°C° 0 mm 0 mps 648 mmHg 68%
    17:00 +5°C° 0 mm 1 mps 648 mmHg 69%
    18:00 +4°C° 0 mm 1 mps 648 mmHg 71%
    19:00 +2°C° 0 mm 1 mps 647 mmHg 73%
    20:00 -1°C° 0 mm 2 mps 647 mmHg 72%
    21:00 -1°C° 0 mm 2 mps 647 mmHg 71%
    22:00 -2°C° 0 mm 2 mps 647 mmHg 69%
    23:00 -2°C° 0 mm 2 mps 647 mmHg 67%

    Day after tomorrow, 19 February, Tuesday

    Time Temperature Precipitation Wind Pressure Humidity
    00:00 -2°C° 0 mm 2 mps 647 mmHg 66%
    01:00 -3°C° 0 mm 2 mps 647 mmHg 64%
    02:00 -3°C° 0 mm 2 mps 647 mmHg 63%
    03:00 -3°C° 0 mm 2 mps 647 mmHg 63%
    04:00 -3°C° 0 mm 2 mps 647 mmHg 62%
    05:00 -3°C° 0 mm 2 mps 647 mmHg 63%
    06:00 -4°C° 0 mm 2 mps 647 mmHg 63%
    07:00 -4°C° 0 mm 2 mps 647 mmHg 63%
    08:00 -2°C° 0 mm 2 mps 647 mmHg 62%
    09:00 +1°C° 0 mm 1 mps 648 mmHg 61%
    10:00 +3°C° 0 mm 1 mps 648 mmHg 61%
    11:00 +4°C° 0 mm 1 mps 649 mmHg 58%
    12:00 +5°C° 0 mm 1 mps 649 mmHg 56%
    13:00 +6°C° 0 mm 1 mps 649 mmHg 54%
    14:00 +6°C° 0 mm 1 mps 649 mmHg 56%
    15:00 +6°C° 0 mm 1 mps 648 mmHg 58%
    16:00 +5°C° 0 mm 1 mps 648 mmHg 60%
    17:00 +4°C° 0 mm 1 mps 648 mmHg 64%
    18:00 +2°C° 0 mm 1 mps 648 mmHg 69%
    19:00 0°C° 0 mm 1 mps 648 mmHg 74%
    20:00 0°C° 0 mm 1 mps 648 mmHg 74%
    21:00 -3°C° 0 mm 2 mps 648 mmHg 74%
    22:00 -3°C° 0 mm 2 mps 648 mmHg 73%
    23:00 -3°C° 0 mm 2 mps 648 mmHg 72%

    20 February, Wednesday

    Time Temperature Precipitation Wind Pressure Humidity
    00:00 -4°C° 0 mm 2 mps 648 mmHg 70%
    01:00 -4°C° 0 mm 2 mps 648 mmHg 69%
    02:00 -4°C° 0 mm 2 mps 648 mmHg 67%
    03:00 -4°C° 0 mm 2 mps 648 mmHg 66%
    04:00 -4°C° 0 mm 2 mps 648 mmHg 64%
    05:00 -4°C° 0 mm 2 mps 648 mmHg 63%
    06:00 -4°C° 0 mm 2 mps 648 mmHg 62%
    07:00 -4°C° 0 mm 2 mps 648 mmHg 61%
    08:00 -1°C° 0 mm 1 mps 649 mmHg 59%
    09:00 +1°C° 0 mm 1 mps 649 mmHg 57%
    10:00 +3°C° 0 mm 1 mps 650 mmHg 54%
    11:00 +4°C° 0 mm 1 mps 650 mmHg 54%
    12:00 +4°C° 0 mm 0 mps 650 mmHg 53%
    13:00 +6°C° 0 mm 0 mps 651 mmHg 52%
    14:00 +5°C° 0 mm 0 mps 650 mmHg 55%
    15:00 +5°C° 0 mm 0 mps 650 mmHg 58%
    16:00 +5°C° 0 mm 1 mps 650 mmHg 61%
    17:00 +4°C° 0 mm 1 mps 650 mmHg 66%
    18:00 +2°C° 0 mm 1 mps 650 mmHg 70%
    19:00 +1°C° 0 mm 1 mps 650 mmHg 75%
    20:00 0°C° 0 mm 1 mps 650 mmHg 75%
    21:00 -2°C° 0 mm 2 mps 650 mmHg 76%
    22:00 -2°C° 0 mm 2 mps 651 mmHg 76%
    23:00 -3°C° 0 mm 2 mps 651 mmHg 75%

    21 February, Thursday

    Time Temperature Precipitation Wind Pressure Humidity
    00:00 -3°C° 0 mm 2 mps 651 mmHg 75%
    01:00 -3°C° 0 mm 2 mps 651 mmHg 74%
    02:00 -3°C° 0 mm 2 mps 650 mmHg 73%
    03:00 -3°C° 0 mm 2 mps 650 mmHg 73%
    04:00 -3°C° 0 mm 2 mps 650 mmHg 72%
    05:00 -3°C° 0 mm 2 mps 650 mmHg 72%
    06:00 -4°C° 0 mm 2 mps 650 mmHg 71%
    07:00 -2°C° 0 mm 1 mps 651 mmHg 71%
    08:00 0°C° 0 mm 1 mps 651 mmHg 67%
    09:00 +2°C° 0 mm 1 mps 652 mmHg 64%
    10:00 +3°C° 0 mm 0 mps 653 mmHg 60%
    11:00 +4°C° 0 mm 0 mps 653 mmHg 60%
    12:00 +5°C° 0 mm 0 mps 653 mmHg 59%
    13:00 +6°C° 0 mm 0 mps 653 mmHg 58%
    14:00 +6°C° 0 mm 0 mps 653 mmHg 61%
    15:00 +5°C° 0 mm 0 mps 652 mmHg 63%
    16:00 +6°C° 0 mm 1 mps 652 mmHg 65%
    17:00 +4°C° 0 mm 1 mps 652 mmHg 70%
    18:00 +3°C° 0 mm 1 mps 652 mmHg 75%
    19:00 +1°C° 0 mm 1 mps 652 mmHg 80%
    20:00 +1°C° 0 mm 1 mps 652 mmHg 79%
    21:00 +1°C° 0 mm 1 mps 652 mmHg 79%
    22:00 -1°C° 0 mm 2 mps 653 mmHg 78%
    23:00 +1°C° 0 mm 1 mps 653 mmHg 78%

    22 February, Friday

    Time Temperature Precipitation Wind Pressure Humidity
    00:00 0°C° 0 mm 1 mps 652 mmHg 78%
    01:00 0°C° 0 mm 1 mps 652 mmHg 77%
    02:00 0°C° 0 mm 1 mps 652 mmHg 77%
    03:00 -1°C° 0 mm 1 mps 652 mmHg 77%
    04:00 -1°C° 0 mm 1 mps 652 mmHg 77%
    05:00 -1°C° 0 mm 1 mps 652 mmHg 78%
    06:00 -1°C° 0 mm 1 mps 653 mmHg 79%
    07:00 -1°C° 0 mm 1 mps 653 mmHg 80%
    08:00 0°C° 0 mm 1 mps 653 mmHg 77%
    09:00 +1°C° 0 mm 0 mps 654 mmHg 74%
    10:00 +2°C° 0 mm 0 mps 654 mmHg 72%
    11:00 +4°C° 0 mm 1 mps 654 mmHg 73%
    12:00 +5°C° 0 mm 1 mps 654 mmHg 73%
    13:00 +4°C° 0 mm 2 mps 654 mmHg 74%
    14:00 +4°C° 0 mm 2 mps 654 mmHg 77%
    15:00 +4°C° 0 mm 2 mps 654 mmHg 80%
    16:00 +3°C° 0 mm 2 mps 653 mmHg 83%
    17:00 +2°C° 0 mm 2 mps 654 mmHg 87%
    18:00 +1°C° 0 mm 2 mps 654 mmHg 91%
    19:00 +1°C° 0 mm 1 mps 654 mmHg 94%
    20:00 +1°C° 0 mm 1 mps 654 mmHg 94%
    21:00 0°C° 0 mm 1 mps 654 mmHg 94%
    22:00 0°C° 0 mm 1 mps 654 mmHg 94%
    23:00 -1°C° 0 mm 1 mps 654 mmHg 92%
    Show more